22. Mai 2022

Uhrzeit Code Wetter Temp. Sichtweite Wolken Wind METAR/SPECI
10:25
V
16 °C 10 km+ - 210°   210° 4 kt METAR EHGG 220825Z AUTO 21004KT 130V300 9999 FEW023 16/10 Q1017 NOSIG
09:55
V
15 °C 10 km+ - 220°   220° 4 kt METAR EHGG 220755Z AUTO 22004KT 140V280 9999 FEW018 15/10 Q1017 NOSIG
09:25
V
15 °C 10 km+ - 190°   190° 4 kt METAR EHGG 220725Z AUTO 19004KT 140V240 9999 NCD 15/11 Q1017 NOSIG
08:55
V
14 °C 10 km+ - 190°   190° 5 kt METAR EHGG 220655Z AUTO 19005KT 160V240 9999 NCD 14/11 Q1017 NOSIG
08:25
V
13 °C 10 km+ - 200°   200° 5 kt METAR EHGG 220625Z AUTO 20005KT 9999 NCD 13/11 Q1017 NOSIG
07:55
V
11 °C 10 km+ - 210°   210° 4 kt METAR EHGG 220555Z AUTO 21004KT 9999 NCD 11/10 Q1018 NOSIG
07:25
V
10 °C 9 km - 190°   190° 3 kt METAR EHGG 220525Z AUTO 19003KT 150V220 9000 NSC 10/10 Q1017 NOSIG
06:55
V
8 °C 8 km - 170°   170° 1 kt METAR EHGG 220455Z AUTO 17001KT 8000 NSC 08/08 Q1018 BECMG CAVOK
06:25
V
6 °C 10 km+ - 190°   190° 1 kt METAR EHGG 220425Z AUTO 19001KT 9999 NSC 06/06 Q1018 BECMG CAVOK
05:55
L
5 °C 250 m - 180°   180° 2 kt METAR EHGG 220355Z AUTO 18002KT 0250 R23/0400N FG NSC 05/05 Q1018
05:25
V
4 °C 10 km+ - 180°   180° 1 kt METAR EHGG 220325Z AUTO 18001KT 9999 R23/1100U NSC 04/04 Q1018
04:55
V
5 °C 10 km+ - Var   Var 1 kt METAR EHGG 220255Z AUTO VRB01KT 9999 NSC 05/05 Q1018
04:25
M
5 °C 6 km - 190°   190° 2 kt METAR EHGG 220225Z AUTO 19002KT 6000 NSC 05/05 Q1018
03:55
L
5 °C 400 m - 230°   230° 2 kt METAR EHGG 220155Z AUTO 23002KT 0400 R23/0450D FG NSC 05/05 Q1018
03:25
M
6 °C 6 km - 220°   220° 1 kt METAR EHGG 220125Z AUTO 22001KT 6000 NSC 06/06 Q1018
02:55
L
5 °C 1 km - 220°   220° 2 kt METAR EHGG 220055Z AUTO 22002KT 1000 R23/1600N BR NSC 05/05 Q1018
02:25
I
6 °C 2,6 km - 220°   220° 3 kt METAR EHGG 220025Z AUTO 22003KT 2600 BR NSC 06/06 Q1019
01:55
M
6 °C 6 km - 240°   240° 3 kt METAR EHGG 212355Z AUTO 24003KT 6000 NSC 06/06 Q1019
01:25
L
6 °C 500 m - 220°   220° 2 kt METAR EHGG 212325Z AUTO 22002KT 0500 R23/1100N FG NSC 06/06 Q1019
00:55
V
7 °C 10 km+ - 220°   220° 1 kt METAR EHGG 212255Z AUTO 22001KT 9999 NSC 07/06 Q1019
00:25
V
7 °C 10 km+ - 220°   220° 2 kt METAR EHGG 212225Z AUTO 22002KT 9999 NSC 07/06 Q1019

21. Mai 2022

Uhrzeit Code Wetter Temp. Sichtweite Wolken Wind METAR/SPECI
23:55
V
8 °C 10 km+ - Var   000° 0 kt METAR EHGG 212155Z AUTO 00000KT 9999 NCD 08/08 Q1019
23:25
V
8 °C 10 km+ - 220°   220° 3 kt METAR EHGG 212125Z AUTO 22003KT 9999 NCD 08/07 Q1020
22:55
V
9 °C 10 km+ - 240°   240° 3 kt METAR EHGG 212055Z AUTO 24003KT 9999 NSC 09/08 Q1020
22:25
V
11 °C 10 km+ - 260°   260° 3 kt METAR EHGG 212025Z AUTO 26003KT 9999 NSC 11/08 Q1020 NOSIG
21:55
V
12 °C 10 km+ - 270°   270° 4 kt METAR EHGG 211955Z AUTO 27004KT 9999 NSC 12/09 Q1020 NOSIG
21:25
V
13 °C 10 km+ - 260°   260° 6 kt METAR EHGG 211925Z AUTO 26006KT 230V310 9999 NSC 13/09 Q1020 NOSIG
20:55
V
13 °C 10 km+ - 260°   260° 7 kt METAR EHGG 211855Z AUTO 26007KT 230V300 9999 FEW026 13/08 Q1020 NOSIG
20:25
V
14 °C 10 km+ - 270°   270° 7 kt METAR EHGG 211825Z AUTO 27007KT 230V290 9999 NSC 14/08 Q1020 NOSIG
19:55
V
14 °C 10 km+ - 260°   260° 10 kt METAR EHGG 211755Z AUTO 26010KT 9999 NSC 14/08 Q1019 NOSIG
19:25
V
15 °C 10 km+ - 260°   260° 10 kt METAR EHGG 211725Z AUTO 26010KT 220V300 9999 NSC 15/08 Q1019 NOSIG
18:55
V
15 °C 10 km+ - 260°   260° 11 kt METAR EHGG 211655Z AUTO 26011KT 230V290 9999 NSC 15/08 Q1019 NOSIG
18:25
V
16 °C 10 km+ - 270°   270° 13 kt METAR EHGG 211625Z AUTO 27013KT 220V300 9999 FEW033 SCT040 16/08 Q1019 NOSIG
17:55
V
16 °C 10 km+ 4.400 ft 260°   260° 11 kt METAR EHGG 211555Z AUTO 26011KT 230V320 9999 FEW029 SCT033 BKN044 16/09 Q1019 NOSIG
17:25
V
17 °C 10 km+ - 270°   270° 14 kt METAR EHGG 211525Z AUTO 27014KT 230V330 9999 FEW033 17/07 Q1019 NOSIG
16:55
V
16 °C 10 km+ 4.600 ft 270°   270° 12 kt METAR EHGG 211455Z AUTO 27012KT 230V310 9999 FEW033 SCT042 BKN046 16/09 Q1019 NOSIG
16:25
V
17 °C 10 km+ 3.300 ft 270°   270° 11 kt METAR EHGG 211425Z AUTO 27011KT 230V310 9999 BKN033 BKN038 17/08 Q1019 NOSIG
15:55
V
17 °C 10 km+ 3.300 ft 280°   280° 12 kt METAR EHGG 211355Z AUTO 28012KT 240V310 9999 BKN033 BKN040 BKN047 17/09 Q1019 NOSIG
15:25
V
17 °C 10 km+ - 270°   270° 12 kt METAR EHGG 211325Z AUTO 27012KT 230V310 9999 FEW033 17/09 Q1019 NOSIG
14:55
M
17 °C 10 km+ 2.800 ft 270°   270° 11 kt METAR EHGG 211255Z AUTO 27011KT 230V320 9999 BKN028 BKN032 OVC040 17/09 Q1019 NOSIG
14:25
V
17 °C 10 km+ - 260°   260° 15 kt METAR EHGG 211225Z AUTO 26015KT 220V300 9999 FEW032 SCT047 17/09 Q1019 NOSIG
13:55
V
18 °C 10 km+ 3.200 ft 260°   260° 13 kt METAR EHGG 211155Z AUTO 26013KT 230V310 9999 SCT028 BKN032 BKN040 18/10 Q1019 NOSIG
13:25
V
16 °C 10 km+ 4.500 ft 270°   270° 13 kt METAR EHGG 211125Z AUTO 27013KT 230V300 9999 SCT028 SCT035 BKN045 16/09 Q1019 NOSIG
12:55
V
16 °C 10 km+ 4.700 ft 280°   280° 9 kt METAR EHGG 211055Z AUTO 28009KT 250V340 9999 FEW028 SCT034 BKN047 16/09 Q1019 NOSIG
12:25
V
16 °C 10 km+ 4.600 ft 270°   270° 12 kt METAR EHGG 211025Z AUTO 27012KT 220V310 9999 FEW029 SCT039 BKN046 16/09 Q1019 NOSIG
11:55
M
16 °C 10 km+ 2.400 ft 270°   270° 11 kt METAR EHGG 210955Z AUTO 27011KT 230V320 9999 BKN024 BKN028 BKN032 16/10 Q1018 NOSIG
11:25
M
15 °C 10 km+ 2.800 ft 270°   270° 14 kt METAR EHGG 210925Z AUTO 27014KT 210V320 9999 SCT023 BKN028 BKN031 15/09 Q1018 NOSIG
10:55
V
16 °C 10 km+ 3.700 ft 270°   270° 14 kt METAR EHGG 210855Z AUTO 27014KT 220V300 9999 SCT023 SCT027 BKN037 16/09 Q1018 NOSIG
10:25
M
15 °C 10 km+ 2.400 ft 280°   280° 14 kt METAR EHGG 210825Z AUTO 28014KT 240V320 9999 SCT021 BKN024 BKN028 15/10 Q1018 NOSIG
09:55
V
15 °C 10 km+ - 270°   270° 11 kt METAR EHGG 210755Z AUTO 27011KT 230V310 9999 SCT021 SCT029 15/10 Q1017 NOSIG
09:25
M
15 °C 10 km+ 2.200 ft 270°   270° 14 kt METAR EHGG 210725Z AUTO 27014KT 230V320 9999 SCT018 BKN022 BKN025 15/10 Q1017 NOSIG
08:55
M
15 °C 10 km+ 1.600 ft 270°   270° 14 kt METAR EHGG 210655Z AUTO 27014KT 210V300 9999 BKN016 BKN019 BKN024 15/10 Q1017 NOSIG
08:25
M
14 °C 10 km+ 2.000 ft 260°   260° 12 kt METAR EHGG 210625Z AUTO 26012KT 230V300 9999 SCT016 BKN020 BKN025 14/11 Q1016 NOSIG
07:55
M
13 °C 10 km+ 1.500 ft 260°   260° 10 kt METAR EHGG 210555Z AUTO 26010KT 230V300 9999 BKN015 OVC020 13/11 Q1016 NOSIG
07:25
M
13 °C 10 km+ 2.000 ft 260°   260° 10 kt METAR EHGG 210525Z AUTO 26010KT 230V300 9999 SCT016 BKN020 OVC024 13/11 Q1016 NOSIG
06:55
M
13 °C 10 km+ 2.800 ft 260°   260° 11 kt METAR EHGG 210455Z AUTO 26011KT 230V290 9999 FEW015 SCT025 BKN028 13/11 Q1016 NOSIG
06:25
M
13 °C 10 km+ 2.000 ft 250°   250° 10 kt METAR EHGG 210425Z AUTO 25010KT 210V290 9999 FEW014 SCT016 BKN020 13/11 Q1015 NOSIG
05:55
M
13 °C 10 km+ 1.600 ft 230°   230° 9 kt METAR EHGG 210355Z AUTO 23009KT 200V270 9999 FEW013 BKN016 OVC019 13/12 Q1015
05:25
M
12 °C 8 km 1.500 ft 220°   220° 11 kt METAR EHGG 210325Z AUTO 22011KT 190V250 8000 FEW008 SCT012 BKN015 12/12 Q1015
04:55
M
12 °C 6 km 2.000 ft 220°   220° 12 kt METAR EHGG 210255Z AUTO 22012KT 6000 FEW012 SCT016 BKN020 12/11 Q1015
04:25
I
12 °C 4,7 km 800 ft 210°   210° 11 kt METAR EHGG 210225Z AUTO 21011KT 180V240 4700 BR FEW005 SCT007 BKN008 12/11 Q1015 REDZ
03:55
M
11 °C 5 km - 210°   210° 10 kt METAR EHGG 210155Z AUTO 21010KT 5000 DZ FEW004 FEW015CB SCT021 11/10 Q1015
03:25
V
11 °C 8 km - 210°   210° 9 kt METAR EHGG 210125Z AUTO 21009KT 8000 SCT019 SCT022 11/10 Q1016
02:55
V
10 °C 10 km+ - 210°   210° 9 kt METAR EHGG 210055Z AUTO 21009KT 190V250 9999 NSC 10/10 Q1016
02:25
V
10 °C 10 km+ - 220°   220° 10 kt METAR EHGG 210025Z AUTO 22010KT 9999 FEW047/// 10/09 Q1016
01:55
V
10 °C 10 km+ - 230°   230° 9 kt METAR EHGG 202355Z AUTO 23009KT 9999 NCD 10/09 Q1016
01:25
V
9 °C 10 km+ - 220°   220° 6 kt METAR EHGG 202325Z AUTO 22006KT 9999 NCD 09/08 Q1016
00:55
V
10 °C 10 km+ - 240°   240° 7 kt METAR EHGG 202255Z AUTO 24007KT 9999 NCD 10/09 Q1016
00:25
V
10 °C 10 km+ - 240°   240° 7 kt METAR EHGG 202225Z AUTO 24007KT 9999 SCT016 10/09 Q1016

20. Mai 2022

Uhrzeit Code Wetter Temp. Sichtweite Wolken Wind METAR/SPECI
23:55
V
10 °C 10 km+ - 260°   260° 7 kt METAR EHGG 202155Z AUTO 26007KT 230V290 9999 NCD 10/10 Q1016
23:25
M
11 °C 10 km+ 1.100 ft 260°   260° 7 kt METAR EHGG 202125Z AUTO 26007KT 230V300 9999 FEW004 SCT007 BKN011 11/10 Q1016
22:55
I
11 °C 10 km+ 600 ft 280°   280° 7 kt METAR EHGG 202055Z AUTO 28007KT 240V320 9999 -DZ FEW004 SCT005 BKN006 11/10 Q1015 REDZ BECMG BKN020
22:25
I
11 °C 3,7 km 1.800 ft 290°   290° 11 kt METAR EHGG 202025Z AUTO 29011KT 240V320 3700 -RA FEW006 BKN018 OVC023 11/10 Q1015 REDZRA BECMG 9999
21:55
I
11 °C 8 km 500 ft 300°   300° 7 kt METAR EHGG 201955Z AUTO 30007KT 270V340 8000 DZ FEW004 BKN005 OVC006 11/11 Q1014 BECMG SCT012 BKN030 TEMPO 4000
21:25
I
12 °C 3,7 km 700 ft 280°   280° 6 kt METAR EHGG 201925Z AUTO 28006KT 250V310 3700 +DZRA FEW004 SCT006 BKN007 12/10 Q1014 TEMPO 4000 RADZ SCT012
20:55
M
12 °C 10 km+ 1.000 ft 280°   280° 8 kt METAR EHGG 201855Z AUTO 28008KT 250V320 9999 FEW008 SCT009 BKN010 12/10 Q1014 TEMPO 4000 RADZ BKN008
20:25
M
12 °C 10 km+ 1.000 ft 290°   290° 9 kt METAR EHGG 201825Z AUTO 29009KT 260V330 9999 FEW008 BKN010 BKN013 12/11 Q1013 TEMPO FEW011
19:55
V
12 °C 10 km+ - 350°   350° 8 kt METAR EHGG 201755Z AUTO 35008KT 300V040 9999 FEW015CB 12/11 Q1011 REDZ BECMG 29010KT
19:25
M
12 °C 6 km 2.900 ft 310°   310° 13 kt METAR EHGG 201725Z AUTO 31013KT 260V010 6000 +DZ FEW013 FEW015CB SCT021 BKN029 12/11 Q1012 RERADZ TEMPO BKN012 BECMG 9999
18:55
I
13 °C 4,8 km 1.200 ft 300°   300° 12 kt METAR EHGG 201655Z AUTO 30012KT 270V330 4800 -RA FEW006 BKN012 OVC046 13/12 Q1012 RERA TEMPO BKN012 BECMG 9999
18:25
M
13 °C 5 km 1.500 ft 330°   330° 8 kt METAR EHGG 201625Z AUTO 33008KT 290V010 5000 RA BKN015CB 13/13 Q1012 TEMPO 4000 BKN012 BECMG 9999 -RA
17:55
M
14 °C 5 km 1.500 ft 320°   320° 10 kt METAR EHGG 201555Z AUTO 32010KT 270V350 5000 RA BKN015CB BKN034 OVC041 14/13 Q1012 TEMPO 4000 BKN012 BECMG 9999 -RA
17:25
I
15 °C 4,9 km 3.600 ft 280°   280° 7 kt METAR EHGG 201525Z AUTO 28007KT 4900 +RA FEW015CB BKN036 OVC043 15/13 Q1013 TEMPO 5000 RA
16:55
M
15 °C 5 km - 010°   010° 3 kt METAR EHGG 201455Z AUTO 01003KT 330V030 5000 RA FEW015CB 15/12 Q1013 TEMPO 8000
16:25
M
17 °C 6 km - 110°   110° 1 kt METAR EHGG 201425Z AUTO 11001KT 6000 SHRA SCT024CB 17/11 Q1013 BECMG 7000 RA
15:55
V
18 °C 10 km+ - 100°   100° 7 kt METAR EHGG 201355Z AUTO 10007KT 050V140 9999 NSC 18/09 Q1013 BECMG 7000 RA
15:25
V
18 °C 10 km+ - 100°   100° 7 kt METAR EHGG 201325Z AUTO 10007KT 050V150 9999 NSC 18/08 Q1014 BECMG 7000 RA
14:55
V
19 °C 10 km+ - 090°   090° 8 kt METAR EHGG 201255Z AUTO 09008KT 050V130 9999 NSC 19/09 Q1015 NOSIG
14:25
V
18 °C 10 km+ - 090°   090° 7 kt METAR EHGG 201225Z AUTO 09007KT 050V130 9999 NSC 18/09 Q1015 NOSIG
13:55
V
18 °C 10 km+ - 110°   110° 5 kt METAR EHGG 201155Z AUTO 11005KT 030V180 9999 NSC 18/10 Q1016 NOSIG
13:25
V
18 °C 10 km+ - 110°   110° 6 kt METAR EHGG 201125Z AUTO 11006KT 050V180 9999 NSC 18/11 Q1017 NOSIG
12:55
V
17 °C 10 km+ - 130°   130° 5 kt METAR EHGG 201055Z AUTO 13005KT 080V190 9999 NSC 17/10 Q1018 NOSIG
12:25
V
17 °C 10 km+ - 130°   130° 4 kt METAR EHGG 201025Z AUTO 13004KT 060V180 9999 NSC 17/10 Q1018 NOSIG
11:55
V
17 °C 10 km+ - 160°   160° 4 kt METAR EHGG 200955Z AUTO 16004KT 060V220 9999 FEW022 17/11 Q1019 NOSIG
11:25
V
16 °C 10 km+ - 130°   130° 6 kt METAR EHGG 200925Z AUTO 13006KT 080V180 9999 NSC 16/10 Q1020 NOSIG
10:55
V
16 °C 10 km+ - 180°   180° 5 kt METAR EHGG 200855Z AUTO 18005KT 130V230 9999 NSC 16/11 Q1020 NOSIG
Ältere Daten

Laden Sie unsere App herunter

Einfacher Zugriff auf das gesamte Flugwetter auf Ihrem Mobiltelefon und Tablet.
Mit vielen Funktionen, die auf der Website nicht verfügbar sind, wie Offline-Unterstützung und eine persönliche Flughafenliste.

Wir und Dritte verfolgen dein Internetverhalten auf unserer Website mit Cookies. Wenn du fortfährst, gehen wir davon aus, dass du mit unserer Cookie-Richtlinie einverstanden bist. Mehr erfahren